Weather History for KSNA - November, 2012

Change the Weather History Date:

Tuesday, November 6, 2012

  Actual Average Record
Temperature  
Mean Temperature 70 °F 64 °F  
Max Temperature 80 °F 73 °F 92 °F (2014)
Min Temperature 59 °F 55 °F 48 °F (2013)
Degree Days  
Heating Degree Days 0 2  
Month to date heating degree days 0 12  
Since 1 July heating degree days 0 39  
Cooling Degree Days 5 1  
Month to date cooling degree days 28 8  
Year to date cooling degree days 1329 862  
Growing Degree Days 20 (Base 50)    
Moisture  
Dew Point 53 °F    
Average Humidity 50    
Maximum Humidity 64    
Minimum Humidity 36    
Precipitation  
Precipitation 0.00 in 0.05 in 0.16 in (2011)
Month to date precipitation 0.00 0.37  
Year to date precipitation 4.19 10.37  
Since 1 July precipitation 0.32 1.41  
Snow  
Snow 0.00 in - - ()
Month to date snowfall 0.0  
Year to date snowfall 0.0  
Since 1 July snowfall 0.0  
Snow Depth 0.00 in    
Sea Level Pressure  
Sea Level Pressure 30.04 in    
Wind  
Wind Speed 4 mph (SW)    
Max Wind Speed 13 mph    
Max Gust Speed 16 mph    
Visibility 8 miles    
Events Fog    
T = Trace of Precipitation, MM = Missing Value Source: NWS Daily Summary

Daily Weather History Graph

Daily Weather History Graph

Search for Another Location

Airport or City:

Trip Planner

Search our weather history database for the weather conditions in past years. The results will help you decide how hot, cold, wet, or windy it might be!

Date:

Astronomy

Nov. 06, 2012 Rise Set
Actual Time 6:15 AM PST 4:54 PM PST
Civil Twilight 5:49 AM PST 5:20 PM PST
Nautical Twilight 5:19 AM PST 5:49 PM PST
Astronomical Twilight 4:50 AM PST 6:19 PM PST
Moon 11:34 PM PST (11/6) 12:12 PM PST (11/6)
Length of Visible Light 11h 30m
Length of Day
10h 38m
Waning Gibbous, 52% of the Moon is Illuminated
Nov 6
Waning Gibbous
Nov 6
Last Quarter
Nov 13
New
Nov 20
First Quarter
Nov 28
Full

Hourly Weather History & Observations

Time (PST) Temp. Heat Index Dew Point Humidity Pressure Visibility Wind Dir Wind Speed Gust Speed Precip Events Conditions
12:53 AM 64.0 °F - 43.0 °F 46% 30.02 in 10.0 mi NNE 3.5 mph - N/A   Clear
1:53 AM 64.0 °F - 45.0 °F 50% 30.02 in 10.0 mi Calm Calm - N/A   Clear
2:53 AM 62.1 °F - 44.1 °F 52% 30.01 in 10.0 mi Calm Calm - N/A   Clear
3:53 AM 60.1 °F - 44.1 °F 55% 30.02 in 10.0 mi Calm Calm - N/A   Clear
4:53 AM 59.0 °F - 45.0 °F 60% 30.03 in 10.0 mi Calm Calm - N/A   Clear
5:53 AM 60.1 °F - 42.1 °F 51% 30.04 in 10.0 mi Calm Calm - N/A   Clear
6:53 AM 62.1 °F - 43.0 °F 50% 30.06 in 10.0 mi Calm Calm - N/A   Clear
7:53 AM 66.9 °F - 43.0 °F 42% 30.08 in 10.0 mi Calm Calm - N/A   Clear
8:53 AM 72.0 °F - 45.0 °F 38% 30.08 in 10.0 mi North 3.5 mph - N/A   Clear
9:53 AM 75.9 °F - 46.0 °F 35% 30.08 in 10.0 mi Calm Calm - N/A   Clear
10:53 AM 80.1 °F 80.0 °F 54.0 °F 40% 30.06 in 10.0 mi SW 9.2 mph - N/A   Clear
11:53 AM 77.0 °F - 55.9 °F 48% 30.04 in 10.0 mi SSW 11.5 mph - N/A   Clear
12:53 PM 75.0 °F - 59.0 °F 57% 30.02 in 10.0 mi SSW 11.5 mph - N/A   Clear
1:53 PM 75.0 °F - 59.0 °F 57% 30.01 in 10.0 mi SSW 10.4 mph - N/A   Clear
2:53 PM 73.9 °F - 60.1 °F 62% 30.00 in 10.0 mi SSW 8.1 mph - N/A   Partly Cloudy
3:53 PM 72.0 °F - 57.9 °F 61% 30.00 in 10.0 mi SW 6.9 mph - N/A   Partly Cloudy
4:53 PM 68.0 °F - 60.1 °F 76% 30.00 in 10.0 mi SW 5.8 mph - N/A   Partly Cloudy
5:53 PM 66.9 °F - 61.0 °F 81% 30.02 in 8.0 mi SW 4.6 mph - N/A   Clear
6:47 PM 64.4 °F - 60.8 °F 88% 30.03 in 6.0 mi SSW 5.8 mph - N/A   Haze
6:53 PM 64.0 °F - 59.0 °F 84% 30.03 in 5.0 mi SW 4.6 mph - N/A   Haze
7:08 PM 64.4 °F - 60.8 °F 88% 30.03 in 5.0 mi Calm Calm - N/A   Mostly Cloudy
7:53 PM 64.0 °F - 59.0 °F 84% 30.04 in 7.0 mi SW 5.8 mph - N/A   Partly Cloudy
8:53 PM 63.0 °F - 57.0 °F 81% 30.06 in 8.0 mi West 3.5 mph - N/A   Scattered Clouds
8:58 PM 62.6 °F - 57.2 °F 82% 30.06 in 0.2 mi WSW 4.6 mph - N/A Fog Fog
9:16 PM 62.6 °F - 59.0 °F 88% 30.07 in 0.1 mi SW 3.5 mph - N/A Fog Fog
9:53 PM 63.0 °F - 59.0 °F 87% 30.06 in 0.8 mi WSW 3.5 mph - N/A   Overcast
10:53 PM 63.0 °F - 57.9 °F 84% 30.06 in 6.0 mi SSW 3.5 mph - N/A   Haze
11:53 PM 63.0 °F - 57.9 °F 84% 30.06 in 8.0 mi Calm Calm - N/A   Overcast